DECAYED

STARLINK-31139, 58688 (Decayed)

Orbit data source: Space-Track

STARLINK-31139, 58688 was a payload satellite owned by SpaceX/Seattle (US) in LEO that was launched on Fri, 29 Dec 2023 UTC via an FALCON 9 launch vehicle from the Air Force Eastern Test Range (AFETR). Payload-class satellites include a variety of spacecraft equipped with specific instruments for various scientific and technological missions. These include communications satellites like Starlink; space stations such as the ISS; scientific satellites like the Hubble; Earth observation satellites from companies like Planet Labs, Umbra, and HawkEye 360; GPS; miniature CubeSats for education and research; and military/defense satellites.

Not visible in the next 10 days
Identifier
58688, 2023-211X
Orbit
Decayed
Country
Flag of USUS
Related business
Manufacturer
SpaceX/Seattle
Mission
Decayed Commercial Communications
Bus & Motor
STARLINK V2M, Unknown motor
Mass
730 kg wet, ~700 kg dry
Launch date (UTC)
2023-12-29 (2 years ago)
Launch vehicle
FALCON 9
Launch site
Air Force Eastern Test Range (AFETR)
Object type
Payload
Rocket body
Debris
Shape & HBR
Box + 2 Pan, 17.7 m
Radar Cross Section
33.884 m², Large (>1 m²)

Expand to show TLE details & history
Last TLE update: 4 months ago

TLE from 4 months ago
0 STARLINK-31139
1 58688U 23211X   26047.76399015  .04655622  91006-5  15037-2 0  9992
2 58688  42.9755 169.1101 0024372  13.9416 346.2139 16.24274956119656
Epoch: 2026-02-16T18:20Z
TLE epoch observation values (Epoch: 2026-02-16T18:20:08.748Z)
Latitude
-0.00003°
Longitude
107.31995°
Altitude
192.149 km
Speed
7.802 km/s
True Right ascension
11h 16m 26s
True Declination
0° 00' 00"
Sunlit
Object was in full shadow at epoch
Visualization orbit readout
Latitude
Unknown
Longitude
Unknown
Altitude
Unknown
Speed
Unknown
Apparent Right ascension
Unknown
Apparent Declination
Unknown
Sunlit
N/A
Visualization observer readout
Local Sidereal Time
21:28:56
Azimuth
Unknown
Elevation
Unknown
Doppler factor
Unknown
Orbital elements
Apogee altitude
226.057 km
Perigee altitude
193.944 km
Semi-major axis
6,588.138 km
Eccentricity
0.00244
Inclination
42.9755°
RAAN
169.1101°
Arg. of periapsis
13.9416°
True anomaly
346.14715°
Mean anomaly
346.2139°
Eccentric anomaly
346.18054°
Mean motion
4.05881 °/min
Orbital period
88.7 mins
BSTAR
0.0015037
Loading maneuver chart data...
Computing Atmospheric mass density...
Loading historical data...
Loading historical data...
Loading historical data...
Loading historical data...
Loading historical data...
Loading historical data...
Loading historical data...

Documentation

Showing up to 5 results
|